Reflectivity
5 16 9 20 -18 3 -20 -20 -20 -20 -20 -20 -20 -20 -20 -20 -20 -20 -20 -20 -20 -20
15 20 22 23 -10 10 1 -20 -20 -20 -20 -20 -20 -20 -20 -20 -20 -20 -20 -20 -20 -20
10 12 21 19 13 22 25 23 12 -8 -17 -20 -14 -20 -20 -20 -20 -18 -18 -20 -20 -20
15 11 13 9 23 5 26 29 16 22 17 10 -0 -0 -3 -20 -20 -4 -1 2 0 -1
12 10 11 16 10 12 19 25 22 31 21 27 13 25 -8 8 13 -1 -5 -13 5 -19
4 4 6 10 13 18 16 25 7 23 10 9 30 23 17 24 19 17 17 14 6 3
14 8 6 15 11 4 6 11 14 1 18 -4 18 23 31 34 29 21 18 12 12 -13
22 25 18 11 11 13 9 -0 -12 18 -16 1 12 10 28 23 30 33 34 28 24 30
1 14 23 32 13 7 16 10 -19 -20 -20 -7 18 13 22 16 7 21 29 10 17 39
-6 -15 12 -2 28 33 28 21 15 9 3 5 1 3 -3 -20 -1 -19 -4 12 19 26
-20 -20 -11 -1 -19 16 27 27 28 28 20 9 -3 7 -20 -20 -20 -20 -8 -11 9 13
-20 -20 -20 -20 -20 -18 -12 21 27 29 31 28 24 23 4 -20 -20 -20 -20 -20 -19 -8
-20 -20 -20 -20 -20 -20 -20 -9 10 18 24 18 16 25 29 28 13 -19 -20 -20 -20 -20
-20 -20 -20 -20 -20 -20 -20 -18 3 4 5 9 23 20 15 22 15 4 8 5 -20 -10
Wind_Speed
25 16 14 14 14 13 13 14 14 15 17 20 19 17 17 14 14 16 15 20 16 13
18 19 20 19 20 15 15 13 16 16 17 18 19 20 19 15 17 17 17 16 17 15
16 16 15 16 20 18 19 21 14 14 17 19 19 19 19 16 18 17 14 14 17 16
15 15 15 15 17 17 15 18 19 15 14 16 17 17 17 18 19 18 16 16 16 18
14 15 15 15 17 17 17 17 17 16 16 11 15 14 16 18 17 17 16 17 15 14
16 16 16 16 16 16 16 17 17 17 17 16 12 11 16 17 18 19 18 16 14 13
14 16 16 16 15 16 15 16 17 17 15 17 18 9 8 7 9 11 12 14 12 12
13 13 17 16 17 16 15 16 15 15 16 13 13 9 13 15 12 12 14 14 14 11
16 16 12 15 18 17 17 16 17 16 14 19 12 10 11 12 14 14 12 16 10 16
16 16 14 13 16 18 18 16 17 18 17 18 17 11 14 13 14 13 12 9 6 9
17 18 17 15 14 15 14 16 16 16 18 19 16 13 15 17 15 14 13 11 11 6
19 20 19 20 17 14 12 13 16 17 19 19 19 19 13 14 17 14 15 13 11 7
20 20 21 20 21 17 16 15 12 15 18 21 21 21 16 15 14 15 10 13 12 4
20 21 19 19 16 18 18 16 15 17 15 16 17 20 20 10 14 13 12 8 8 5
Wind_Direction
15 359 332 275 255 264 251 245 232 231 225 226 228 228 226 224 223 223 225 226 232 237
1 5 3 360 11 328 267 250 245 234 231 232 229 224 220 221 221 220 218 222 223 232
360 2 356 350 355 4 343 337 276 242 230 233 230 232 226 223 223 225 223 222 223 224
352 356 356 2 346 353 341 336 349 311 248 233 233 232 227 229 228 220 223 228 233 232
347 353 356 346 343 357 340 336 343 335 342 304 237 230 225 231 221 223 211 213 215 219
349 351 351 345 337 329 338 338 344 342 349 347 314 246 219 230 227 218 218 213 204 207
348 348 343 338 338 337 333 333 342 345 335 346 335 304 303 297 248 218 227 218 209 208
354 312 349 333 334 330 338 335 337 332 337 333 334 9 5 346 294 245 239 234 228 235
337 348 306 328 334 327 336 332 336 331 332 331 328 353 357 346 332 305 275 244 244 247
335 323 330 330 323 321 325 328 338 328 323 317 316 344 341 357 327 312 312 306 284 264
333 329 331 327 322 314 318 303 336 317 308 316 308 331 340 328 316 315 308 302 295 324
333 332 330 325 321 316 301 302 297 318 311 306 304 323 317 323 316 312 306 305 305 299
332 330 328 323 320 319 313 306 297 290 298 296 298 316 319 319 305 298 296 297 285 290
329 328 323 319 319 316 313 306 300 291 286 294 305 296 303 289 298 299 296 286 286 284